�ϑ��N����,2020/09/28,,,
�ϑ���,�a�򉛗S,,,
�ϑ��n�_,01,,,
���x�v�ԍ�,A019,,,
,,,,
����,�C��,����,����,���l
9:30:00,21.6,3,1,�����̉A
9:31:00,21.5,3,1.5,�����̉A
9:32:00,21.3,2,1,�����̉A
9:33:00,21.3,3,2,�����̉A
9:34:00,21.3,4,1.5,�����̉A
9:35:00,21.4,8,1.5,�����̉A
9:36:00,21.4,8,1,�����̉A
9:37:00,21.6,7,1.5,�����̉A
9:38:00,21.8,7,1,�����̉A
9:39:00,21.8,7,0.5,�����̉A
9:40:00,21.8,3,1.5,�����̉A
9:41:00,21.8,2,1,�����̉A
9:42:00,21.8,7,1,�����̉A
9:43:00,22,7,0.5,�����̉A
9:44:00,22.1,7,1,�����̉A
9:45:00,22.1,3,0.5,�����̉A
9:46:00,22,3,2,�����̉A
9:47:00,21.7,3,1.5,�����̉A
9:48:00,21.5,2,1,�����̉A
9:49:00,21.6,3,2,�����̉A
9:50:00,21.8,3,0.5,�����̉A
9:51:00,21.9,3,1.5,�����̉A
9:52:00,21.9,3,2,�����̉A
9:53:00,21.9,2,1,�����̉A
9:54:00,21.9,0,,�����̉A
9:55:00,22,3,1,�����̉A
9:56:00,22,3,0.5,�����̉A
9:57:00,21.9,7,0.5,�����̉A
9:58:00,21.9,0,,�����̉A
9:59:00,21.9,3,1,�����̉A
10:00:00,22,3,0.5,�����̉A
10:01:00,22,3,1,�����̉A
10:02:00,22,0,,�����̉A
10:03:00,21.9,7,0.5,�����̉A
10:04:00,21.9,8,2,�����̉A
10:05:00,21.9,2,0.5,�����̉A
10:06:00,22,3,0.5,�����̉A
10:07:00,22.1,3,1,�����̉A
10:08:00,22.1,3,0.5,�����̉A
10:09:00,22.1,3,0.5,�����̉A
10:10:00,22.2,2,0.5,�����̉A
10:11:00,22.1,0,,�����̉A
10:12:00,22.1,3,1,�����̉A
10:13:00,22.1,2,0.5,�����̉A
10:14:00,22,3,1,�����̉A
10:15:00,22,3,0.5,�����̉A
10:16:00,22.2,3,1,�����̉A
10:17:00,22.3,3,0.5,�����̉A
10:18:00,22.2,7,2,�����̉A
10:19:00,22.1,7,1,�����̉A
10:20:00,22.2,8,0.5,�����̉A
10:21:00,22.2,7,0.5,�����̉A
10:22:00,22.2,7,1,�����̉A
10:23:00,22.1,7,2,�����̉A
10:24:00,22,7,0.5,�����̉A
10:25:00,22.1,7,1,�����̉A
10:26:00,22.2,6,0.5,�����̉A
10:27:00,22.2,7,0.5,�����̉A
10:28:00,22.2,3,0.5,�����̉A
10:29:00,22.4,3,0.5,�����̉A
10:30:00,22.3,2,1.5,�����̉A
10:31:00,22.3,3,0.5,�����̉A
10:32:00,22.3,3,0.5,�����̉A
10:33:00,22.4,3,0.5,�؉A
10:34:00,22.6,3,0.5,�؉A
10:35:00,22.7,7,0.5,�؉A
10:36:00,22.8,3,0.5,�؉A
10:37:00,22.7,3,0.5,�؉A
10:38:00,22.5,0,,�_�̉A
10:39:00,22.8,5,0.5,�_�̉A
10:40:00,22.8,3,2,�_�̉A
10:41:00,22.8,7,0.5,�_�̉A
10:42:00,22.8,0,,�_�̉A
10:43:00,22.9,0,,�_�̉A
10:44:00,23,7,0.5,�_�̉A
10:45:00,22.9,7,,�_�̉A
10:46:00,22.9,7,0.5,�_�̉A
10:47:00,22.9,8,0.5,�_�̉A
10:48:00,23.1,6,0.5,�_�̉A
10:49:00,23.2,6,0.5,�_�̉A
10:50:00,23.5,3,0.5,�_�̉A
10:51:00,23.4,7,0.5,�_�̉A
10:52:00,23.4,0,,�_�̉A
10:53:00,23.4,0,,�_�̉A
10:54:00,23.4,0,,�_�̉A
10:55:00,23.5,5,0.5,�_�̉A
10:56:00,23.7,3,0.5,�_�̉A
10:57:00,23.5,0,,�_�̉A
10:58:00,23.5,7,0.5,�_�̉A
10:59:00,23.3,8,0.5,�؉A
11:00:00,23.3,7,0.5,�؉A
11:01:00,23.4,3,1.5,�؉A
11:02:00,23.3,3,1,�؉A
11:03:00,23.7,6,0.5,�؉A
11:04:00,23.8,4,0.5,�؉A
11:05:00,23.8,3,0.5,�؉A
11:06:00,23.5,3,0.5,�؉A
11:07:00,23.3,3,0.5,�؉A
11:08:00,23.5,6,0.5,�؉A
11:09:00,23.9,0,,�؉A
11:10:00,24,0,,�؉A
11:11:00,24.3,4,1,�؉A
11:12:00,24.3,5,0.5,�؉A
11:13:00,24.2,6,0.5,�؉A
11:14:00,24.2,7,1,�؉A
11:15:00,24.1,7,0.5,�؉A
11:16:00,24,6,0.5,�؉A
11:17:00,24,7,0.5,�؉A
11:18:00,23.9,7,0.5,�؉A
11:19:00,23.8,0,,�؉A
11:20:00,23.8,3,0.5,�؉A
11:21:00,23.7,3,1,�؉A
11:22:00,23.5,3,1,�؉A
11:23:00,23.8,8,0.5,�؉A
11:24:00,23.8,3,1,�؉A
11:25:00,23.9,3,0.5,�؉A
11:26:00,23.9,3,1.5,�_�̉A
11:27:00,23.8,3,1,�_�̉A
11:28:00,23.7,3,0.5,�؉A
11:29:00,23.8,7,1.5,�؉A
11:30:00,23.8,7,2,�؉A
